Vorticity
7 8 8 9 9 7 4 5 6 7 6 6 8 8 7 6 7 8 7 8 8 7 6 6 4 6 6 14 9 9 8 7 7 9 11 9 6 6 6 6 5 7 6
6 6 7 6 6 6 6 5 4 5 6 6 5 5 6 6 6 7 7 6 8 7 7 7 5 6 7 12 6 6 5 6 5 6 8 9 7 5 4 4 5 5 5
5 5 4 5 5 6 6 6 8 5 4 4 5 4 4 5 4 6 6 7 7 7 7 7 6 6 7 10 4 3 4 4 3 3 4 6 8 8 8 7 6 6 6
4 5 6 6 5 5 5 4 6 7 8 9 5 4 5 6 4 3 7 7 8 8 8 8 6 6 7 9 5 3 2 2 3 3 3 3 4 6 6 7 8 8 7
6 6 7 6 6 5 6 5 4 4 7 5 6 4 4 4 6 5 3 5 6 8 7 8 8 6 6 8 6 6 3 4 3 3 3 4 4 4 4 4 5 6 7
7 6 6 4 5 6 6 6 9 6 7 5 4 6 5 4 4 6 5 4 5 6 6 8 8 7 5 6 7 6 6 6 6 6 6 6 6 6 5 4 4 4 5
3 4 4 3 5 7 7 6 5 8 7 5 7 6 6 6 5 5 6 4 4 7 6 8 6 8 7 5 6 5 5 5 6 6 5 4 5 5 5 4 4 4 5
5 5 6 6 5 7 8 5 8 8 9 10 10 6 7 10 12 13 10 10 8 4 6 6 5 6 5 5 4 7 5 3 8 2 4 0 5 6 7 6 5 4 4
3 6 8 7 8 3 8 5 4 9 6 4 10 7 5 2 3 5 4 10 10 9 11 6 8 11 8 3 3 -4 -3 0 -11 -2 4 2 4 6 2 8 8 5 5
6 5 4 5 5 7 7 5 7 11 10 7 8 6 6 7 6 7 5 9 2 7 6 7 5 -1 -8 22 23 16 2 13 34 17 -7 4 3 3 13 10 14 10 8
7 7 7 6 7 8 11 6 9 9 7 8 5 11 7 9 9 5 8 8 5 8 5 -2 13 9 6 -2 3 5 3 11 13 35 26 17 22 1 6 6 3 -0 -1
7 9 10 11 11 11 9 9 7 8 8 8 8 9 8 4 7 8 4 3 8 11 10 8 4 9 9 4 2 0 4 7 18 6 8 6 5 8 -1 3 5 -1 7
10 11 9 8 8 5 5 8 13 12 11 10 9 9 10 11 14 11 8 7 7 2 -0 4 7 10 6 8 1 8 -16 4 2 -6 2 9 24 9 17 3 -2 1 4
9 9 8 9 11 11 10 6 12 10 7 9 8 8 8 7 11 10 12 13 5 10 7 5 5 1 14 7 -2 11 1 2 31 12 28 6 17 5 11 7 1 14 -1
8 8 14 10 13 14 13 9 11 9 8 11 12 15 16 15 11 5 10 11 12 7 4 9 8 11 -2 15 -18 13 9 11 10 41 17 1 11 19 3 5 5 8 13
13 8 13 15 8 12 13 9 10 12 13 18 21 36 30 23 27 32 10 25 19 13 8 5 11 1 15 36 9 -30 54 14 32 19 17 10 8 5 15 -8 19 -4 5
12 10 13 10 13 8 4 7 7 15 21 10 24 30 12 34 18 21 30 11 43 17 16 10 7 5 15 4 -9 37 -18 -40 2 0 17 22 -15 2 8 -10 13 2 11
8 18 2 9 7 10 11 3 5 17 10 13 18 15 19 37 4 31 31 11 25 17 16 12 18 10 12 4 -1 -2 11 20 6 -16 10 3 9 6 9 17 17 3 3
9 10 9 2 10 14 10 13 11 14 12 14 22 19 18 20 36 22 26 30 23 44 3 -8 -1 7 -1 -5 54 20 12 6 14 8 11 -3 5 8 15 13 22 25 27
7 13 4 7 10 7 10 8 8 8 6 5 12 28 24 24 32 27 20 20 6 18 33 21 -35 47 25 7 8 14 17 28 24 8 15 20 18 17 20 8 9 7 5
11 9 6 11 12 12 12 7 4 6 10 5 10 16 20 14 31 18 17 15 4 4 14 9 8 -1 13 9 14 1 2 11 14 18 16 14 10 6 5 8 9 9 9
11 6 11 12 14 15 3 7 10 7 14 3 10 13 12 7 23 24 38 25 38 42 15 11 9 -16 1 6 20 37 25 33 5 1 2 9 6 12 10 8 7 8 7
6 8 12 13 10 13 15 15 9 9 18 8 4 13 18 17 16 9 11 19 24 28 34 23 18 1 26 9 4 5 13 4 3 3 3 3 8 8 8 8 13 14 16
14 11 8 10 12 11 8 8 11 13 11 18 10 10 6 7 5 9 6 19 4 6 7 10 11 12 12 11 8 5 3 2 3 4 5 9 6 6 15 20 22 22 21
11 9 8 11 15 14 16 15 13 13 12 12 6 12 14 15 12 10 8 6 5 2 1 2 2 3 4 5 6 6 5 7 6 6 0 9 18 26 19 14 14 16 18
8 7 10 16 15 16 13 11 10 9 9 10 8 6 6 6 6 5 4 4 4 5 6 7 7 7 6 4 6 11 9 6 10 15 17 29 21 14 15 18 19 18 16
Height
5862 5861 5859 5858 5857 5856 5854 5853 5852 5852 5851 5850 5849 5848 5846 5845 5844 5844 5842 5840 5839 5838 5837 5836 5836 5835 5833 5832 5830 5829 5828 5826 5825 5825 5824 5823 5822 5822 5820 5821 5820 5820 5820
5856 5855 5853 5852 5851 5848 5849 5848 5846 5846 5845 5844 5843 5842 5840 5839 5838 5838 5836 5834 5833 5832 5831 5830 5829 5829 5828 5827 5826 5824 5823 5821 5821 5820 5819 5818 5817 5817 5817 5815 5815 5815 5815
5849 5848 5847 5846 5845 5844 5842 5843 5842 5841 5839 5837 5835 5834 5832 5832 5831 5830 5829 5828 5827 5825 5824 5824 5823 5822 5821 5821 5820 5819 5818 5817 5815 5815 5814 5813 5812 5811 5811 5811 5810 5809 5809
5841 5841 5840 5840 5838 5838 5836 5834 5834 5833 5831 5829 5827 5826 5825 5825 5824 5822 5822 5822 5820 5818 5817 5816 5816 5815 5815 5814 5813 5813 5812 5811 5810 5809 5808 5807 5806 5805 5805 5804 5804 5803 5802
5835 5834 5833 5832 5831 5829 5828 5827 5825 5824 5823 5821 5819 5818 5816 5816 5814 5814 5814 5813 5813 5811 5809 5809 5808 5807 5806 5806 5805 5805 5804 5803 5802 5801 5800 5800 5799 5799 5798 5797 5797 5796 5796
5828 5825 5824 5823 5822 5821 5820 5818 5817 5815 5814 5811 5809 5808 5806 5805 5804 5804 5804 5804 5803 5803 5801 5799 5799 5798 5797 5797 5796 5796 5795 5795 5794 5793 5792 5792 5791 5791 5790 5790 5789 5789 5789
5819 5818 5818 5815 5813 5812 5810 5809 5807 5805 5803 5800 5798 5797 5795 5794 5794 5794 5793 5792 5793 5793 5792 5790 5789 5789 5788 5787 5787 5787 5786 5786 5785 5785 5784 5783 5782 5782 5781 5780 5780 5780 5780
5809 5809 5808 5806 5803 5802 5801 5799 5797 5795 5793 5790 5788 5785 5784 5784 5784 5782 5781 5781 5780 5781 5781 5780 5780 5779 5778 5778 5777 5776 5776 5776 5775 5774 5774 5772 5772 5772 5772 5771 5770 5770 5770
5797 5796 5796 5795 5793 5791 5790 5788 5786 5784 5782 5780 5778 5775 5772 5772 5771 5771 5770 5770 5769 5768 5769 5768 5768 5767 5767 5766 5765 5763 5763 5763 5762 5762 5763 5762 5762 5761 5761 5761 5760 5759 5760
5789 5786 5783 5784 5783 5781 5779 5776 5775 5774 5770 5768 5765 5765 5760 5759 5757 5758 5758 5757 5756 5756 5756 5756 5755 5755 5755 5754 5752 5751 5751 5749 5749 5750 5751 5752 5751 5750 5749 5749 5748 5749 5750
5780 5777 5774 5772 5772 5770 5768 5765 5762 5760 5759 5757 5753 5750 5747 5744 5743 5742 5742 5743 5742 5742 5742 5742 5742 5743 5743 5742 5741 5740 5739 5738 5736 5736 5738 5738 5738 5737 5737 5737 5737 5737 5738
5771 5768 5765 5763 5761 5759 5756 5754 5750 5746 5744 5742 5740 5736 5733 5729 5727 5726 5726 5727 5726 5726 5727 5728 5729 5730 5730 5730 5730 5729 5728 5726 5724 5723 5723 5724 5724 5723 5723 5725 5725 5725 5726
5761 5760 5758 5754 5750 5748 5745 5741 5738 5734 5730 5727 5724 5721 5716 5712 5708 5708 5708 5709 5709 5710 5711 5712 5715 5715 5715 5715 5715 5715 5714 5712 5712 5709 5709 5708 5710 5709 5708 5710 5710 5711 5711
5749 5749 5747 5744 5740 5735 5732 5729 5725 5721 5717 5712 5707 5702 5697 5694 5691 5688 5688 5688 5690 5694 5695 5697 5699 5701 5703 5700 5700 5701 5699 5698 5696 5694 5693 5692 5693 5693 5692 5694 5695 5695 5695
5739 5737 5735 5731 5728 5725 5720 5716 5712 5708 5703 5697 5690 5682 5678 5675 5672 5669 5670 5670 5671 5673 5678 5681 5684 5687 5685 5686 5683 5684 5683 5680 5680 5680 5679 5679 5677 5678 5680 5681 5680 5679 5679
5728 5726 5723 5720 5717 5714 5711 5706 5701 5695 5689 5682 5673 5663 5656 5652 5650 5648 5651 5652 5653 5655 5661 5666 5667 5672 5672 5670 5670 5667 5667 5664 5665 5665 5666 5664 5662 5664 5666 5665 5664 5665 5664
5718 5716 5713 5710 5707 5704 5699 5694 5689 5682 5674 5665 5655 5647 5642 5635 5632 5632 5632 5635 5636 5637 5643 5650 5653 5654 5656 5658 5657 5653 5655 5651 5654 5652 5651 5650 5649 5649 5650 5649 5648 5646 5646
5709 5706 5704 5701 5697 5693 5688 5684 5678 5670 5662 5652 5642 5635 5628 5622 5618 5616 5615 5617 5622 5622 5629 5636 5638 5639 5641 5642 5641 5641 5637 5638 5639 5639 5636 5636 5635 5633 5633 5630 5629 5628 5627
5701 5698 5695 5692 5688 5684 5679 5674 5668 5659 5651 5641 5632 5624 5617 5610 5605 5604 5602 5604 5608 5611 5613 5620 5624 5626 5629 5626 5626 5627 5628 5626 5623 5622 5621 5620 5618 5617 5614 5612 5610 5609 5607
5692 5690 5687 5684 5680 5676 5671 5665 5659 5651 5643 5634 5625 5616 5608 5602 5597 5595 5596 5595 5599 5601 5605 5609 5612 5609 5614 5614 5613 5613 5613 5611 5608 5606 5606 5604 5601 5599 5595 5594 5592 5590 5587
5683 5681 5679 5675 5671 5666 5662 5656 5651 5644 5637 5629 5621 5612 5603 5598 5593 5589 5587 5589 5592 5594 5596 5599 5600 5601 5603 5604 5602 5601 5598 5596 5593 5591 5591 5586 5585 5580 5577 5577 5574 5572 5570
5675 5673 5670 5666 5661 5658 5654 5649 5643 5637 5630 5624 5616 5609 5602 5596 5590 5586 5585 5586 5587 5586 5589 5591 5593 5594 5594 5593 5591 5589 5587 5583 5580 5577 5576 5567 5568 5563 5560 5557 5552 5549 5546
5667 5664 5661 5657 5653 5650 5645 5640 5635 5629 5624 5618 5613 5607 5601 5595 5590 5587 5584 5583 5582 5583 5584 5585 5585 5585 5583 5582 5580 5576 5574 5571 5568 5563 5561 5551 5549 5544 5538 5534 5530 5526 5523
5659 5656 5653 5649 5645 5642 5638 5634 5629 5624 5619 5613 5608 5603 5599 5594 5590 5587 5584 5581 5580 5579 5578 5578 5577 5576 5575 5573 5569 5566 5562 5558 5554 5550 5544 5537 5531 5522 5517 5514 5509 5506 5503
5652 5648 5645 5641 5639 5635 5631 5627 5623 5617 5613 5609 5605 5601 5596 5592 5587 5584 5582 5578 5577 5575 5573 5571 5569 5566 5563 5560 5557 5553 5549 5543 5537 5533 5528 5518 5512 5504 5498 5495 5492 5488 5485
5645 5642 5638 5635 5632 5628 5625 5621 5617 5613 5609 5605 5601 5597 5593 5588 5584 5581 5577 5575 5572 5569 5566 5563 5560 5556 5552 5547 5543 5537 5531 5526 5519 5513 5510 5502 5495 5491 5482 5476 5474 5471 5468